Vertical_Velocity
31 33 31 26 25 27 31 34 38 37 35 32 32 32 32 31 30 29 28 27 27 25 21 18 15 10 4 0 -1 -1 -1 -1 -1 -2 -2 -2 -3 -3 -4 -4 -5 -5 -5 -5 -5 -4 -4 -4 -3 -3 -2 -2 -2 -2 -2 -2 -3 -2 -2 -2 -1 -1 -1 -1 0 1 2 3 3
17 19 19 18 20 22 23 22 23 23 22 20 18 17 17 18 18 19 20 20 15 10 6 3 4 3 2 0 -0 -1 -2 -2 -2 -2 -2 -2 -2 -2 -3 -4 -5 -5 -5 -4 -4 -3 -3 -3 -3 -2 -2 -2 -2 -2 -2 -3 -2 -2 -2 -2 -1 0 1 2 3 4 5 5 5
2 3 4 4 7 7 7 6 9 9 8 6 5 7 10 13 15 15 15 13 9 6 5 5 5 4 3 1 -0 -1 -2 -3 -3 -3 -2 -2 -2 -3 -3 -4 -4 -3 -3 -2 -2 -2 -2 -2 -2 -2 -2 -2 -2 -2 -1 -2 -1 0 1 1 1 2 3 4 5 5 6 6 6
1 -1 -3 -3 -1 -1 -1 0 3 4 4 5 8 13 18 22 21 17 12 7 5 4 4 4 3 2 1 -0 -1 -1 -2 -2 -2 -2 -2 -2 -2 -2 -2 -1 -1 -0 0 0 0 -0 -0 -0 -1 -1 -1 -1 -0 0 1 1 2 2 2 2 3 3 4 4 5 5 6 6 5
5 2 2 4 4 2 -1 -2 -1 1 3 6 9 11 13 13 10 6 2 -0 -0 -0 -0 0 0 -0 -1 -1 -1 -1 -1 -0 -0 0 0 0 1 1 2 3 4 4 4 3 2 2 1 0 -0 -0 -1 -0 -0 0 1 1 2 2 3 3 3 3 3 4 5 5 5 5 5
5 5 5 5 2 -1 -4 -5 -5 -4 -3 -1 -0 0 0 -0 -1 -1 -2 -2 -2 -2 -1 -1 -1 -2 -2 -2 -1 -1 0 1 1 1 2 2 3 4 5 6 5 5 4 3 3 2 1 1 1 0 -0 -0 0 1 1 1 2 2 3 3 3 3 3 4 3 4 4 4 3
-2 -2 -1 -0 0 -1 -2 -4 -6 -5 -4 -3 -2 -1 -1 -1 -1 -1 -1 -1 -2 -2 -2 -2 -2 -2 -2 -1 0 1 2 2 3 3 4 4 5 5 5 5 5 4 4 3 3 2 2 2 2 1 1 1 1 1 1 2 2 2 3 3 3 4 4 3 2 2 3 2 2
-4 -4 -3 -1 0 -0 -1 -3 -5 -5 -4 -3 -2 -1 -0 -0 -0 -0 -0 -0 -1 -1 -1 -0 -0 0 1 2 2 3 3 4 4 4 4 5 4 4 4 4 4 3 3 3 2 2 2 2 2 2 2 2 2 2 2 2 2 2 2 3 3 4 4 3 2 2 1 1 1
-2 -3 -3 -2 -3 -3 -3 -3 -2 -2 -2 -2 -1 -1 -0 -0 -0 -0 0 0 1 1 2 2 3 3 3 4 3 3 4 4 4 4 3 3 2 2 2 2 3 2 2 2 2 2 2 2 2 2 2 2 2 2 2 2 2 2 2 2 2 2 3 3 2 1 0 -0 -0
1 1 1 1 1 1 1 2 2 2 0 -1 -1 -1 -1 -1 -0 0 1 1 2 2 3 3 4 4 4 4 4 3 3 2 2 1 1 1 1 1 1 1 1 1 1 1 1 1 1 0 0 -0 -0 0 1 1 1 1 2 1 1 1 1 1 1 1 1 1 -0 -1 -1
2 2 2 2 2 2 3 3 3 2 1 0 0 0 1 1 1 2 2 2 3 3 3 3 4 3 3 2 2 1 1 0 -0 -1 -1 -1 -1 -1 -0 -0 -0 -0 -0 -1 -1 -1 -1 -2 -2 -2 -2 -3 -2 -1 -1 -1 -0 -0 -0 -1 -0 0 -0 -1 -0 -0 -1 -2 -2
1 1 1 1 1 1 1 1 1 1 1 2 2 2 2 3 2 2 2 2 2 2 2 2 2 1 1 0 -0 -0 -1 -1 -1 -1 -1 -1 -1 -1 -1 -1 -1 -1 -2 -2 -2 -2 -2 -3 -3 -3 -3 -4 -3 -3 -2 -2 -1 -1 -1 -2 -1 -1 -1 -2 -2 -2 -2 -2 -2
-0 -0 -0 -0 -0 0 0 1 1 1 2 2 2 2 2 2 1 1 1 1 0 0 0 0 0 -0 -0 -1 -1 -1 -1 -1 -1 -1 -1 -1 -1 -1 -1 -2 -2 -2 -2 -3 -3 -3 -2 -3 -2 -2 -2 -3 -3 -3 -2 -2 -2 -2 -2 -2 -2 -2 -2 -2 -2 -2 -2 -1 -2
-0 -0 -0 -0 -0 0 1 1 1 1 1 1 1 1 1 0 -0 -0 -0 -1 -1 -1 -1 -1 -1 -1 -1 -1 -1 -1 -1 -1 -1 -1 -1 -1 -1 -1 -1 -2 -2 -2 -2 -2 -2 -2 -2 -2 -2 -1 -1 -1 -1 -1 -1 -1 -1 -2 -2 -2 -2 -2 -2 -2 -2 -1 -1 -1 -1
1 1 1 1 1 1 1 1 1 1 1 0 0 0 -0 -0 -0 -1 -1 -1 -1 -1 -1 -1 -1 -1 -1 -1 -1 -2 -1 -1 -1 -1 -1 -1 -1 -1 -1 -1 -1 -1 -1 -1 -1 -1 -1 -1 -1 -1 -0 0 0 -0 -0 -0 -1 -1 -1 -2 -2 -2 -2 -2 -2 -1 -1 -1 -1
3 3 3 3 3 3 3 2 2 2 1 1 0 0 0 -0 -0 -0 -1 -1 -1 -1 -1 -1 -1 -1 -1 -1 -1 -1 -1 -1 -1 -0 -0 -0 0 0 1 1 1 1 1 1 0 -0 -0 -1 -0 -0 0 1 1 1 1 1 0 0 -0 -1 -1 -1 -1 -1 -1 -1 -1 -1 -0
4 4 4 3 3 3 3 2 2 1 1 1 0 0 0 -0 -0 0 -0 -0 -0 -0 -0 -0 -0 0 0 0 0 1 1 1 1 2 2 2 2 2 3 2 2 2 2 3 2 2 2 1 1 1 1 1 2 2 2 2 2 2 1 1 1 0 -0 -0 -0 -0 -0 0 0
3 3 3 3 2 2 2 1 1 1 1 0 0 0 1 1 1 1 1 1 1 1 1 1 1 2 2 2 2 3 3 3 3 3 3 4 4 4 4 4 3 3 3 3 3 3 3 3 3 3 3 3 2 2 2 2 2 2 2 2 2 1 1 1 1 1 1 1 1
2 2 1 1 1 0 0 -0 -0 -0 -0 -0 0 0 1 1 1 1 1 1 2 2 2 1 2 2 3 3 3 3 3 4 3 3 3 3 4 4 4 3 3 3 3 3 3 3 3 3 3 3 3 2 2 2 2 2 1 1 1 1 1 2 2 2 2 2 2 2 2
0 0 -0 -0 -1 -1 -1 -1 -1 -1 -1 -1 -0 -0 -0 0 1 1 1 1 1 1 2 1 1 1 2 2 2 2 2 2 3 2 2 2 2 2 2 2 2 2 2 1 2 2 2 2 1 1 1 1 1 0 0 -0 0 -0 -0 0 1 1 1 2 2 2 2 2 1
-0 -1 -1 -1 -1 -1 -1 -1 -1 -1 -1 -1 -1 -0 -0 -0 -0 0 0 -0 0 1 1 0 1 1 1 1 1 1 0 0 1 1 1 0 1 1 1 1 1 1 0 0 0 0 0 -0 -0 -1 -1 -1 -1 -1 -1 -1 -1 -0 -0 0 0 1 1 1 1 1 1 0 0
-0 -1 -1 -1 -1 -1 -1 -1 -1 -1 -1 -1 -1 -1 -1 -1 -0 -0 -0 -0 -0 -0 -0 -0 -0 0 0 0 1 0 -0 -0 0 -0 -0 -0 -0 -0 -0 0 -0 -0 -1 -1 -1 -1 -1 -1 -2 -2 -2 -2 -2 -2 -2 -2 -1 -1 -0 1 1 1 1 1 1 0 -0 -1 -1
-1 -1 -1 -1 -2 -2 -2 -2 -2 -2 -2 -2 -1 -1 -1 -1 -1 -1 -1 -1 -0 -0 -0 -0 -0 -0 -0 0 0 0 0 -0 -0 -1 -1 -1 -1 -1 -1 -1 -1 -1 -2 -2 -2 -2 -2 -2 -2 -2 -2 -2 -3 -2 -2 -2 -2 -2 -1 -0 1 1 2 2 1 1 -0 -1 -1
-2 -2 -2 -2 -2 -2 -2 -2 -2 -2 -2 -2 -1 -1 -1 -1 -1 -1 -1 -1 -1 -1 -1 -1 -0 -0 -0 -0 -0 0 0 0 0 -0 -0 -1 -1 -1 -1 -1 -1 -2 -2 -3 -3 -3 -4 -4 -4 -3 -3 -2 -2 -2 -2 -2 -2 -2 -2 -1 -1 0 1 2 2 1 1 -0 -1
-2 -2 -2 -2 -1 -1 -1 -1 -1 -1 -1 -1 -1 -1 -1 -1 -1 -1 -1 -1 -1 -0 -0 -0 -0 -0 -0 -0 -1 -1 -0 -0 -0 -0 -0 -1 -1 -1 -2 -2 -2 -2 -3 -3 -3 -4 -5 -6 -6 -6 -5 -4 -4 -3 -3 -2 -2 -2 -2 -3 -2 -1 -0 1 2 2 2 1 0
-1 -1 -1 -1 -1 -1 -1 -1 -1 -0 -0 -0 -0 -0 -0 -0 -0 -0 -0 -0 -0 -0 -0 -0 -0 -1 -1 -1 -1 -2 -2 -2 -2 -2 -2 -2 -2 -2 -3 -3 -3 -4 -4 -4 -4 -4 -5 -5 -6 -7 -7 -7 -5 -4 -3 -3 -1 -1 -1 -2 -2 -2 -1 -1 1 2 3 2 2
-1 -1 -1 -1 -1 -1 -1 -0 -0 -0 0 0 0 0 0 0 0 0 0 -0 -0 -0 -1 -1 -1 -1 -2 -2 -2 -3 -3 -3 -3 -3 -3 -4 -4 -4 -4 -4 -4 -4 -4 -4 -3 -3 -3 -3 -4 -5 -5 -6 -5 -4 -3 -2 -1 0 1 0 -0 -0 -1 -1 -1 0 2 3 3
-1 -1 -1 -1 -1 -0 -0 -0 0 0 0 0 0 0 -0 -0 -0 -0 -1 -1 -1 -1 -2 -2 -2 -2 -3 -3 -3 -4 -4 -4 -4 -4 -3 -3 -3 -3 -3 -2 -2 -2 -2 -1 -1 -1 -0 -0 -0 -1 -2 -3 -4 -3 -2 -1 -1 0 1 2 1 1 1 0 -0 0 1 1 2
-1 -1 -1 -1 -0 -0 -0 -0 -0 -0 -0 -0 -1 -1 -1 -1 -1 -2 -2 -2 -3 -3 -3 -3 -3 -3 -3 -3 -3 -3 -3 -3 -2 -2 -1 -0 0 1 1 2 2 1 1 2 2 2 2 2 2 1 1 -1 -2 -2 -2 -1 -1 -1 -0 1 2 2 1 1 1 1 0 0 1
-1 -1 -1 -1 -1 -1 -1 -1 -1 -1 -2 -2 -2 -2 -3 -3 -3 -3 -3 -3 -4 -4 -3 -3 -3 -3 -2 -2 -1 -0 -0 -0 1 1 2 3 3 4 4 4 4 3 3 3 3 2 2 2 2 1 1 0 -1 -2 -2 -2 -2 -1 -1 -1 -0 0 0 -0 -0 -0 -0 -0 0
-1 -1 -1 -1 -2 -2 -2 -2 -3 -3 -3 -4 -4 -4 -4 -4 -4 -4 -3 -3 -3 -3 -2 -1 -0 -0 0 1 2 2 2 2 2 3 3 3 4 4 4 4 3 2 2 2 1 1 0 0 0 -0 -1 -1 -2 -2 -3 -3 -3 -2 -2 -2 -2 -1 -1 -2 -2 -1 -1 -1 -1
-2 -2 -2 -2 -3 -3 -3 -4 -4 -4 -4 -4 -4 -4 -4 -3 -3 -2 -2 -1 -0 0 1 1 2 2 2 3 3 3 3 2 2 2 2 2 2 2 2 2 1 1 -0 -0 -1 -1 -2 -2 -2 -2 -3 -3 -3 -3 -3 -3 -3 -3 -3 -2 -2 -2 -2 -2 -2 -2 -1 -0 -1
-3 -3 -3 -4 -4 -4 -4 -4 -4 -4 -4 -3 -3 -2 -2 -1 -0 0 1 2 2 2 2 2 2 2 2 2 2 2 2 1 1 0 -0 0 1 1 0 -0 -1 -1 -2 -2 -3 -3 -3 -3 -3 -3 -4 -4 -4 -4 -4 -4 -4 -3 -3 -2 -1 -1 -1 -1 -2 -1 -1 -0 -0
-4 -4 -4 -4 -4 -4 -3 -3 -2 -2 -2 -1 -1 0 1 1 2 2 2 3 3 3 2 2 2 1 1 0 1 0 -1 -1 -1 -1 -2 -2 -1 -1 -1 -1 -2 -3 -3 -3 -4 -4 -4 -4 -4 -4 -5 -5 -5 -4 -4 -4 -4 -4 -3 -3 -2 -1 -0 -1 -1 -1 -0 -0 -0
-4 -3 -3 -3 -2 -2 -1 -1 -0 0 1 1 2 2 2 3 3 2 2 2 2 1 1 -0 -0 -0 -1 -2 -1 -1 -2 -3 -3 -3 -3 -3 -3 -2 -2 -2 -3 -3 -4 -4 -5 -5 -4 -4 -5 -5 -5 -5 -6 -5 -5 -4 -5 -4 -3 -3 -2 -2 -1 -1 -1 -0 0 0 0
-2 -1 -1 -1 -0 0 1 1 2 2 2 3 3 3 2 2 2 1 1 1 1 -0 -1 -2 -2 -2 -2 -3 -3 -3 -3 -3 -4 -4 -4 -4 -3 -3 -3 -2 -2 -3 -3 -4 -4 -4 -4 -4 -4 -5 -5 -5 -5 -5 -5 -4 -4 -4 -3 -3 -3 -2 -1 -1 -1 -1 -0 1 0
0 0 1 1 2 2 2 3 3 3 2 2 2 2 1 1 -0 -1 -1 -0 -1 -2 -3 -2 -3 -3 -3 -3 -3 -3 -4 -4 -4 -4 -4 -4 -3 -3 -3 -2 -1 -1 -2 -3 -3 -3 -3 -3 -3 -4 -5 -5 -5 -5 -4 -4 -3 -3 -3 -3 -3 -2 -1 -1 -1 -1 -0 0 1
2 2 2 2 2 2 2 2 2 2 1 1 1 0 -0 -1 -1 -2 -3 -2 -2 -3 -4 -3 -3 -3 -3 -3 -2 -3 -4 -4 -4 -4 -4 -5 -4 -3 -3 -2 -2 -1 -1 -1 -2 -2 -2 -2 -2 -3 -4 -5 -6 -5 -5 -5 -4 -3 -3 -3 -3 -2 -0 0 -2 -2 -1 1 1
2 2 2 2 2 2 2 1 1 0 -0 -1 -1 -2 -2 -2 -3 -4 -4 -4 -3 -3 -3 -3 -4 -4 -4 -3 -2 -2 -3 -3 -4 -4 -4 -4 -5 -4 -3 -3 -3 -2 -1 -1 -2 -2 -2 -2 -2 -2 -3 -4 -6 -6 -6 -5 -5 -5 -4 -4 -5 -4 -2 1 -1 -3 -3 1 3
2 2 2 2 1 1 1 -0 -1 -1 -2 -2 -3 -3 -3 -3 -3 -4 -4 -4 -4 -3 -3 -3 -4 -4 -4 -3 -3 -2 -2 -2 -3 -3 -4 -4 -4 -4 -4 -4 -3 -2 -1 -1 -2 -2 -2 -2 -2 -3 -3 -5 -6 -7 -7 -7 -8 -7 -6 -5 -7 -8 -7 -3 -2 -4 -6 -4 1
2 2 1 0 0 -0 -1 -2 -2 -3 -3 -3 -4 -4 -3 -3 -3 -3 -4 -4 -4 -4 -4 -3 -4 -4 -5 -5 -4 -3 -3 -2 -2 -2 -3 -3 -4 -4 -4 -5 -4 -3 -2 -1 -2 -2 -2 -2 -3 -3 -4 -5 -7 -8 -8 -9 -11 -10 -9 -7 -9 -10 -11 -10 -7 -6 -7 -8 -6
Height
3050 3051 3053 3054 3056 3057 3059 3061 3063 3065 3066 3067 3067 3068 3068 3069 3069 3070 3071 3072 3073 3074 3075 3076 3076 3076 3075 3076 3076 3076 3076 3077 3077 3077 3077 3077 3077 3078 3078 3078 3078 3079 3079 3079 3079 3079 3079 3078 3078 3078 3078 3078 3078 3078 3077 3077 3077 3076 3076 3075 3075 3075 3074 3074 3073 3073 3073 3072 3072
3048 3050 3051 3053 3055 3057 3058 3060 3062 3063 3063 3064 3065 3065 3066 3066 3067 3068 3069 3071 3071 3071 3072 3072 3073 3073 3074 3074 3075 3075 3075 3076 3076 3076 3076 3076 3076 3076 3076 3076 3076 3076 3076 3076 3076 3076 3076 3076 3076 3076 3076 3076 3075 3075 3075 3074 3074 3074 3073 3073 3073 3073 3073 3072 3072 3072 3071 3071 3070
3045 3047 3049 3051 3052 3054 3055 3056 3058 3059 3060 3061 3062 3063 3065 3066 3066 3067 3068 3069 3069 3070 3071 3071 3071 3072 3072 3073 3073 3073 3074 3074 3074 3074 3074 3074 3074 3074 3074 3074 3074 3074 3074 3075 3075 3075 3075 3074 3074 3074 3074 3073 3073 3073 3072 3072 3072 3072 3072 3071 3071 3071 3071 3071 3070 3070 3069 3069 3068
3046 3047 3049 3050 3052 3053 3055 3056 3058 3059 3061 3062 3063 3064 3065 3066 3066 3067 3067 3067 3068 3069 3069 3070 3070 3071 3071 3071 3071 3072 3072 3072 3072 3072 3072 3073 3073 3073 3073 3073 3073 3073 3073 3073 3073 3073 3072 3072 3072 3072 3072 3071 3071 3071 3071 3070 3070 3070 3070 3070 3069 3069 3069 3068 3068 3067 3067 3066 3066
3047 3049 3050 3052 3053 3054 3056 3057 3058 3059 3061 3062 3063 3064 3064 3065 3065 3066 3066 3066 3067 3067 3068 3069 3069 3070 3070 3070 3070 3071 3071 3071 3071 3071 3071 3071 3071 3071 3071 3071 3071 3071 3071 3071 3071 3071 3070 3070 3070 3070 3070 3070 3069 3069 3069 3068 3068 3068 3068 3067 3067 3067 3066 3066 3066 3065 3064 3064 3063
3048 3050 3051 3052 3053 3054 3055 3056 3057 3058 3060 3061 3061 3062 3063 3064 3064 3065 3065 3066 3066 3067 3067 3068 3068 3068 3069 3069 3069 3070 3070 3070 3070 3070 3070 3070 3070 3070 3070 3070 3070 3070 3069 3069 3069 3068 3068 3068 3068 3068 3068 3067 3067 3067 3066 3066 3066 3066 3066 3065 3065 3064 3064 3063 3063 3062 3061 3061 3060
3048 3049 3050 3051 3052 3053 3055 3056 3057 3058 3059 3060 3061 3061 3062 3063 3063 3064 3064 3065 3066 3066 3066 3066 3067 3067 3067 3068 3068 3068 3068 3069 3069 3069 3069 3069 3069 3068 3068 3068 3068 3067 3067 3066 3066 3066 3066 3066 3066 3066 3065 3065 3065 3065 3064 3064 3063 3063 3063 3062 3062 3062 3061 3061 3060 3059 3058 3058 3057
3048 3049 3051 3052 3053 3054 3055 3056 3057 3058 3059 3060 3060 3061 3062 3062 3063 3063 3064 3064 3065 3065 3065 3066 3066 3066 3066 3067 3067 3067 3067 3067 3067 3067 3067 3067 3067 3066 3066 3066 3065 3065 3065 3064 3064 3064 3064 3063 3063 3063 3063 3063 3062 3062 3062 3061 3061 3061 3060 3060 3059 3059 3058 3058 3057 3056 3055 3055 3054
3048 3049 3051 3052 3053 3054 3055 3056 3057 3058 3059 3059 3060 3061 3061 3062 3062 3062 3063 3063 3064 3064 3064 3065 3065 3065 3065 3065 3066 3066 3066 3066 3066 3065 3065 3065 3065 3064 3064 3063 3063 3063 3062 3062 3062 3061 3061 3061 3061 3061 3061 3060 3060 3059 3059 3059 3058 3057 3057 3056 3056 3056 3055 3055 3054 3053 3052 3051 3051
3049 3050 3052 3053 3054 3055 3056 3057 3057 3058 3058 3059 3060 3060 3061 3061 3061 3062 3062 3062 3063 3063 3063 3064 3064 3064 3064 3064 3064 3064 3064 3064 3064 3063 3063 3063 3063 3062 3062 3061 3061 3061 3060 3060 3060 3059 3059 3059 3058 3058 3058 3057 3057 3056 3056 3056 3055 3054 3054 3053 3053 3052 3052 3051 3051 3050 3049 3048 3047
3050 3051 3052 3053 3054 3055 3056 3056 3057 3057 3058 3058 3059 3059 3060 3060 3061 3061 3061 3061 3062 3062 3062 3062 3062 3063 3063 3063 3063 3062 3062 3062 3062 3062 3061 3061 3061 3061 3060 3060 3059 3059 3058 3058 3057 3057 3057 3056 3056 3056 3055 3055 3054 3054 3053 3052 3052 3051 3051 3050 3049 3049 3048 3047 3047 3046 3045 3045 3044
3050 3051 3052 3053 3054 3055 3055 3056 3056 3057 3057 3058 3058 3059 3059 3060 3060 3060 3061 3061 3061 3061 3061 3061 3061 3061 3061 3061 3061 3061 3061 3060 3060 3060 3060 3059 3059 3059 3058 3058 3057 3057 3056 3056 3056 3055 3055 3054 3053 3053 3052 3052 3051 3051 3050 3049 3049 3048 3047 3046 3046 3045 3045 3044 3044 3043 3042 3041 3041
3050 3051 3052 3053 3054 3054 3055 3056 3056 3056 3057 3057 3058 3058 3058 3059 3059 3059 3059 3060 3060 3060 3060 3060 3060 3059 3059 3059 3059 3059 3059 3058 3058 3058 3058 3057 3057 3056 3056 3056 3055 3055 3054 3054 3053 3053 3052 3051 3051 3050 3050 3049 3048 3047 3047 3046 3045 3045 3044 3043 3042 3042 3041 3041 3040 3039 3039 3038 3037
3050 3051 3051 3052 3053 3054 3054 3055 3055 3056 3056 3056 3056 3057 3057 3057 3057 3058 3058 3058 3058 3058 3058 3058 3058 3058 3057 3057 3057 3057 3057 3056 3056 3056 3056 3055 3055 3055 3054 3053 3053 3052 3052 3051 3051 3050 3049 3048 3048 3047 3046 3046 3045 3044 3044 3043 3042 3041 3040 3040 3039 3038 3038 3037 3036 3036 3035 3034 3034
3049 3050 3051 3051 3052 3052 3053 3053 3054 3054 3055 3055 3055 3056 3056 3056 3056 3056 3056 3056 3056 3056 3056 3056 3056 3056 3056 3056 3055 3055 3055 3055 3054 3054 3054 3053 3053 3052 3052 3051 3051 3050 3049 3048 3048 3047 3046 3045 3045 3044 3043 3042 3042 3041 3040 3040 3039 3038 3037 3036 3036 3035 3034 3033 3033 3032 3031 3031 3030
3049 3049 3050 3050 3051 3051 3051 3052 3052 3053 3053 3053 3054 3054 3054 3055 3055 3055 3055 3055 3055 3055 3055 3054 3054 3054 3054 3054 3053 3053 3053 3053 3052 3052 3051 3051 3051 3050 3049 3049 3048 3047 3046 3046 3045 3044 3043 3042 3041 3041 3040 3039 3038 3038 3037 3036 3036 3035 3034 3033 3032 3031 3031 3030 3030 3029 3028 3027 3027
3048 3048 3049 3049 3050 3050 3051 3051 3051 3051 3052 3052 3052 3053 3053 3053 3053 3053 3053 3053 3053 3053 3053 3053 3052 3052 3052 3052 3051 3051 3051 3050 3050 3050 3049 3048 3048 3047 3046 3046 3045 3044 3044 3043 3042 3041 3040 3039 3038 3037 3036 3036 3035 3034 3034 3033 3032 3031 3031 3030 3029 3028 3028 3027 3026 3026 3025 3024 3023
3047 3048 3048 3048 3049 3049 3049 3050 3050 3050 3051 3051 3051 3051 3051 3051 3051 3051 3051 3051 3051 3051 3051 3051 3050 3050 3050 3049 3049 3048 3048 3047 3047 3046 3046 3045 3045 3044 3043 3042 3042 3041 3040 3040 3039 3038 3037 3036 3035 3034 3033 3032 3032 3031 3030 3030 3029 3028 3027 3027 3026 3025 3025 3024 3023 3022 3021 3021 3020
3046 3047 3047 3047 3048 3048 3048 3049 3049 3049 3050 3050 3050 3050 3050 3050 3050 3050 3050 3049 3049 3049 3049 3048 3048 3047 3047 3047 3046 3046 3045 3045 3044 3043 3043 3042 3041 3041 3040 3039 3039 3038 3037 3036 3035 3035 3034 3033 3032 3031 3030 3029 3028 3028 3027 3026 3025 3025 3024 3023 3023 3022 3021 3020 3020 3019 3018 3017 3016
3046 3046 3046 3046 3047 3047 3047 3048 3048 3048 3048 3048 3048 3048 3048 3048 3048 3048 3048 3047 3047 3047 3046 3046 3046 3045 3045 3044 3044 3043 3043 3042 3041 3041 3040 3039 3039 3038 3037 3036 3036 3035 3034 3033 3032 3031 3031 3030 3029 3028 3027 3026 3025 3024 3024 3023 3022 3021 3021 3020 3019 3018 3017 3017 3016 3015 3014 3013 3012
3044 3045 3045 3045 3046 3046 3046 3046 3046 3047 3047 3047 3047 3047 3047 3046 3046 3046 3046 3046 3045 3045 3045 3044 3044 3043 3043 3042 3041 3041 3040 3040 3039 3038 3037 3037 3036 3035 3034 3034 3033 3032 3031 3030 3029 3028 3027 3026 3026 3025 3024 3023 3022 3021 3020 3019 3018 3018 3017 3016 3016 3015 3014 3013 3012 3011 3010 3009 3008
3043 3043 3044 3044 3044 3045 3045 3045 3045 3045 3045 3045 3045 3045 3045 3045 3044 3044 3044 3043 3043 3043 3042 3042 3041 3041 3040 3040 3039 3038 3038 3037 3036 3036 3035 3034 3033 3032 3031 3031 3030 3029 3028 3027 3026 3025 3024 3023 3022 3021 3020 3019 3018 3017 3016 3016 3015 3014 3013 3012 3012 3011 3010 3009 3008 3007 3006 3005 3004
3042 3042 3042 3043 3043 3043 3043 3043 3043 3043 3043 3043 3043 3043 3043 3042 3042 3042 3041 3041 3041 3041 3040 3039 3039 3038 3038 3037 3037 3036 3035 3035 3034 3033 3032 3031 3030 3029 3028 3028 3027 3026 3025 3024 3023 3022 3021 3020 3019 3018 3017 3016 3015 3014 3013 3012 3011 3010 3009 3008 3008 3007 3006 3005 3004 3003 3002 3001 3000
3041 3041 3041 3041 3041 3041 3042 3042 3042 3041 3041 3041 3041 3041 3041 3040 3040 3040 3039 3039 3038 3038 3037 3037 3036 3036 3035 3035 3034 3033 3033 3032 3031 3030 3029 3028 3027 3026 3025 3025 3024 3022 3021 3021 3019 3018 3017 3016 3015 3014 3013 3012 3011 3010 3009 3008 3007 3006 3005 3004 3003 3002 3002 3001 3000 2999 2998 2997 2996
3040 3040 3040 3040 3040 3040 3040 3040 3040 3039 3039 3039 3039 3039 3038 3038 3037 3037 3037 3036 3036 3036 3035 3035 3034 3033 3032 3032 3031 3031 3030 3029 3028 3027 3026 3025 3024 3023 3022 3021 3020 3019 3018 3017 3016 3015 3013 3012 3011 3010 3009 3008 3007 3006 3005 3004 3003 3001 3000 2999 2998 2997 2997 2996 2996 2995 2994 2993 2991
3038 3038 3038 3038 3038 3038 3038 3038 3038 3037 3037 3037 3037 3036 3036 3036 3036 3035 3035 3034 3034 3033 3032 3032 3031 3031 3030 3029 3028 3027 3027 3026 3025 3024 3023 3022 3021 3021 3019 3018 3017 3016 3015 3014 3013 3011 3010 3009 3007 3006 3004 3003 3001 3001 3000 2999 2998 2997 2996 2995 2993 2992 2991 2991 2990 2990 2989 2988 2987
3037 3037 3036 3036 3036 3036 3036 3036 3036 3036 3035 3035 3035 3035 3034 3034 3033 3033 3032 3032 3031 3031 3030 3030 3029 3028 3027 3026 3026 3025 3024 3023 3022 3021 3020 3019 3018 3017 3016 3015 3014 3013 3011 3010 3009 3008 3006 3005 3003 3001 3000 2998 2996 2996 2994 2993 2993 2992 2991 2990 2989 2987 2986 2985 2984 2984 2983 2982 2982
3036 3035 3035 3035 3035 3035 3035 3035 3034 3034 3034 3033 3033 3033 3032 3032 3031 3031 3030 3030 3029 3029 3028 3027 3026 3026 3025 3024 3023 3022 3021 3020 3019 3018 3017 3016 3015 3014 3013 3012 3011 3009 3008 3007 3005 3004 3003 3001 3000 2998 2996 2994 2992 2991 2989 2988 2987 2986 2986 2985 2984 2983 2981 2981 2979 2978 2977 2977 2976
3034 3034 3034 3034 3034 3033 3033 3033 3033 3032 3032 3032 3031 3031 3031 3030 3030 3029 3028 3028 3027 3026 3026 3025 3024 3023 3022 3021 3020 3019 3018 3017 3016 3015 3014 3013 3012 3011 3010 3008 3007 3006 3005 3003 3001 3000 2999 2997 2996 2994 2992 2990 2988 2986 2985 2983 2982 2981 2980 2979 2978 2977 2976 2976 2974 2973 2972 2971 2971
3033 3033 3033 3033 3032 3032 3032 3032 3031 3031 3031 3031 3030 3030 3029 3028 3028 3027 3026 3026 3025 3024 3023 3022 3021 3020 3019 3018 3017 3016 3015 3014 3012 3011 3010 3009 3008 3007 3006 3005 3004 3002 3001 2999 2997 2996 2994 2993 2991 2989 2988 2986 2984 2982 2980 2979 2977 2976 2975 2974 2973 2972 2971 2970 2969 2968 2967 2966 2965
3032 3032 3032 3032 3031 3031 3031 3031 3030 3030 3030 3029 3028 3028 3027 3026 3026 3025 3024 3023 3022 3021 3021 3020 3018 3017 3016 3015 3014 3013 3012 3011 3009 3008 3006 3005 3004 3003 3002 3001 2999 2998 2996 2995 2993 2991 2990 2988 2986 2985 2983 2981 2979 2977 2976 2974 2972 2971 2969 2968 2967 2966 2965 2964 2962 2961 2961 2960 2959
3031 3031 3031 3031 3030 3030 3030 3029 3029 3028 3028 3027 3026 3026 3025 3024 3023 3022 3021 3021 3020 3019 3018 3016 3016 3014 3013 3012 3011 3010 3008 3007 3005 3004 3002 3001 3000 2999 2997 2996 2995 2993 2991 2990 2988 2986 2985 2983 2981 2979 2978 2976 2974 2972 2971 2969 2967 2966 2964 2963 2961 2960 2959 2957 2956 2955 2954 2953 2952
3030 3030 3030 3029 3029 3029 3028 3027 3027 3026 3026 3025 3024 3023 3022 3021 3020 3020 3019 3018 3017 3016 3015 3013 3012 3011 3010 3008 3007 3006 3004 3003 3001 3000 2998 2996 2995 2994 2993 2991 2990 2988 2986 2985 2983 2981 2980 2978 2976 2974 2972 2970 2969 2967 2965 2963 2962 2960 2959 2957 2956 2954 2953 2951 2950 2949 2947 2946 2945
3029 3029 3028 3028 3027 3026 3026 3025 3025 3024 3023 3022 3021 3020 3019 3018 3017 3016 3016 3015 3013 3012 3011 3010 3008 3007 3006 3004 3003 3001 3000 2998 2997 2995 2994 2992 2991 2990 2988 2987 2986 2984 2982 2980 2978 2976 2975 2973 2971 2969 2967 2965 2963 2961 2960 2958 2956 2954 2953 2951 2950 2948 2947 2946 2944 2942 2941 2940 2939
3027 3027 3026 3026 3025 3024 3023 3023 3022 3021 3020 3019 3018 3017 3016 3016 3014 3013 3012 3011 3010 3009 3007 3006 3004 3003 3001 3000 2999 2997 2996 2994 2993 2991 2990 2988 2987 2986 2984 2983 2981 2979 2977 2976 2973 2971 2970 2968 2966 2964 2961 2959 2957 2956 2954 2952 2950 2949 2947 2946 2944 2942 2941 2940 2938 2936 2935 2934 2932
3025 3025 3024 3023 3022 3022 3021 3020 3019 3019 3018 3017 3016 3015 3013 3012 3011 3010 3009 3007 3006 3005 3004 3002 3001 2999 2998 2996 2995 2993 2992 2990 2989 2987 2986 2984 2983 2981 2980 2978 2977 2975 2973 2971 2969 2966 2965 2962 2960 2958 2956 2954 2951 2950 2948 2946 2944 2942 2941 2940 2938 2936 2935 2934 2932 2931 2929 2928 2927
3023 3022 3021 3021 3020 3019 3019 3018 3017 3016 3015 3014 3013 3011 3010 3009 3007 3006 3005 3004 3003 3001 3000 2999 2997 2996 2994 2993 2991 2990 2988 2986 2985 2983 2981 2980 2978 2976 2975 2974 2972 2970 2968 2966 2964 2961 2960 2957 2955 2952 2950 2948 2946 2944 2942 2940 2938 2937 2935 2934 2932 2931 2929 2928 2926 2925 2924 2922 2921
3021 3020 3019 3019 3018 3017 3016 3015 3014 3013 3012 3011 3010 3008 3007 3006 3004 3003 3001 3000 2999 2998 2996 2995 2994 2992 2991 2989 2988 2986 2984 2982 2981 2979 2977 2975 2973 2972 2970 2969 2967 2965 2963 2961 2959 2957 2955 2952 2950 2947 2945 2943 2940 2938 2936 2935 2933 2931 2930 2928 2927 2925 2924 2922 2921 2920 2918 2917 2916
3019 3018 3017 3016 3015 3014 3013 3012 3011 3010 3009 3008 3006 3005 3004 3003 3001 3000 2998 2997 2996 2994 2993 2991 2990 2988 2987 2985 2984 2982 2981 2979 2976 2975 2973 2971 2969 2967 2965 2964 2962 2960 2958 2956 2954 2952 2950 2948 2946 2943 2940 2938 2936 2933 2931 2930 2928 2926 2925 2923 2922 2921 2919 2917 2916 2915 2914 2912 2911
3016 3016 3015 3014 3013 3012 3011 3010 3008 3007 3006 3005 3004 3002 3001 3000 2998 2997 2995 2994 2992 2991 2989 2988 2986 2984 2983 2981 2979 2978 2976 2975 2973 2971 2968 2966 2964 2962 2961 2959 2957 2955 2953 2952 2950 2947 2945 2943 2941 2939 2936 2934 2931 2929 2927 2925 2924 2922 2920 2919 2917 2916 2915 2913 2912 2911 2909 2908 2906
3014 3013 3012 3011 3010 3009 3008 3007 3006 3005 3003 3002 3001 2999 2998 2997 2995 2994 2992 2990 2989 2987 2985 2984 2982 2981 2979 2977 2975 2973 2972 2970 2968 2966 2964 2962 2960 2958 2956 2954 2952 2950 2949 2947 2946 2943 2941 2939 2937 2935 2933 2930 2928 2925 2923 2921 2920 2918 2916 2915 2913 2912 2911 2909 2907 2906 2906 2904 2903